Theta_e
343 349 352 349 345 345 345 345 345 347 350 351 347 345 347 348 348 346 345 344 343 344 345 345 344 343 343 341 341 340 341 342 342 343 343 343 341 340 339 338 339 339 340
345 348 353 349 345 343 343 343 345 346 347 349 351 350 346 347 350 347 345 344 343 341 342 344 343 341 341 341 341 340 340 340 341 341 339 342 342 339 336 337 338 336 336
345 349 350 351 348 345 343 343 343 344 346 348 347 348 351 346 347 348 345 344 343 341 340 340 340 341 339 338 338 340 339 339 339 339 337 339 341 339 336 337 337 337 336
346 349 350 351 350 349 347 346 344 344 344 344 343 344 348 350 350 348 347 344 342 341 340 340 338 339 340 338 337 336 337 337 338 336 338 337 336 342 340 339 339 337 336
347 348 350 352 351 350 350 349 348 346 346 346 346 346 346 348 348 348 349 347 343 343 340 339 339 337 336 335 335 337 337 337 337 335 338 339 338 338 342 342 339 339 337
348 350 349 351 350 350 349 349 349 349 348 348 348 348 347 347 347 347 347 348 345 343 343 341 340 340 340 339 337 337 337 338 338 338 338 337 338 336 339 342 341 339 339
348 350 349 349 348 346 344 342 340 340 344 344 346 347 347 348 348 347 347 346 347 346 345 345 344 343 343 342 342 340 339 339 335 335 336 338 338 338 341 342 342 341 340
345 341 340 335 336 334 334 334 333 333 332 331 331 331 335 341 343 343 341 343 346 347 347 346 346 345 345 345 344 344 343 340 334 332 334 336 340 337 341 342 343 343 342
328 326 328 326 324 328 327 327 327 326 326 325 324 323 322 323 325 326 327 330 336 336 340 343 345 346 346 345 346 345 343 341 340 338 333 332 338 337 339 342 343 344 343
315 315 318 322 321 321 322 321 322 321 321 320 319 319 317 322 320 319 322 325 325 327 328 332 336 340 342 343 344 343 340 339 340 341 341 339 335 336 338 340 343 344 344
313 314 317 318 318 319 318 316 318 318 317 318 320 317 319 317 318 318 318 318 321 322 323 325 327 329 330 334 341 340 338 342 341 340 340 341 338 340 340 338 339 342 344
314 315 316 316 315 316 314 317 317 317 318 317 317 317 317 317 316 315 316 316 317 317 319 319 320 322 324 322 325 333 338 341 341 340 340 341 341 344 344 343 341 340 341
315 315 314 315 315 315 316 317 318 319 319 319 319 318 318 318 319 318 318 318 319 317 317 319 319 318 319 318 319 320 323 327 332 336 339 338 339 340 342 343 342 342 342
314 313 313 313 315 315 317 317 318 318 318 318 319 318 318 318 318 317 318 318 318 318 318 318 318 317 317 317 317 317 317 318 320 324 328 335 336 337 339 339 341 341 342
313 313 312 313 315 315 316 318 317 317 318 318 318 317 316 315 315 315 315 316 317 317 317 317 317 317 317 317 317 317 317 317 317 318 319 324 329 330 330 332 333 336 340
312 313 312 312 314 315 316 317 317 318 317 317 315 314 313 313 313 313 313 313 314 315 315 315 315 315 315 316 315 316 316 317 318 318 319 319 324 326 327 327 328 329 331
312 312 312 312 314 314 315 317 318 318 316 314 312 312 312 313 314 314 314 314 315 315 315 315 315 315 315 316 315 316 317 317 317 317 317 318 320 322 325 325 326 326 327
312 312 312 313 313 314 316 318 317 316 314 312 311 313 314 314 314 314 313 313 314 315 315 314 314 314 314 314 314 314 314 316 316 316 317 318 319 318 321 324 324 326 327
311 311 311 312 312 314 315 316 315 313 312 310 313 314 313 313 313 313 313 313 313 314 314 314 314 314 312 313 312 313 313 314 316 316 315 317 318 319 320 322 323 323 325
310 311 311 312 312 314 316 315 314 312 311 311 313 313 312 313 313 313 313 313 313 313 314 314 313 314 313 312 311 312 314 316 318 315 315 315 317 318 319 320 322 323 325
310 310 312 312 313 315 315 314 312 309 309 310 313 312 312 312 313 313 314 314 314 313 313 313 313 312 312 313 311 311 313 316 316 314 315 316 315 316 318 319 320 322 322
308 310 312 312 313 314 315 314 311 309 308 309 312 312 312 312 313 313 313 314 314 314 314 314 313 311 311 312 309 309 306 310 312 314 314 315 315 317 317 318 318 320 321
308 310 311 312 313 314 313 312 310 309 310 309 311 311 312 312 313 314 314 315 315 315 314 314 313 311 308 311 312 309 305 304 306 312 312 314 315 316 316 317 317 319 320
309 311 311 312 312 313 312 310 308 307 306 307 309 311 311 311 312 313 314 314 314 315 314 314 313 312 311 308 311 312 311 308 302 303 310 312 314 314 316 316 317 319 320
308 311 312 311 312 313 312 310 309 307 308 308 309 310 311 312 312 312 313 313 313 314 314 314 313 311 312 309 309 309 308 307 308 303 301 306 311 314 315 316 317 319 320
309 310 312 311 312 312 312 311 309 308 308 307 307 309 311 312 312 311 311 311 312 312 312 313 313 311 311 311 311 309 307 304 304 303 302 303 305 311 314 316 318 319 319
Wind_Speed
7 9 8 8 8 8 8 9 8 8 7 9 7 6 4 3 3 4 5 6 6 7 6 7 8 8 7 6 7 7 8 10 11 12 10 8 7 6 7 6 7 10 9
11 9 9 9 8 8 8 8 7 7 7 7 6 5 2 2 6 4 4 4 5 5 5 6 6 6 6 5 5 5 5 6 7 7 6 2 3 3 4 5 7 8 7
11 10 11 9 9 8 8 8 7 7 6 7 7 8 8 2 4 2 2 2 3 4 3 4 4 4 4 4 3 2 2 3 5 5 3 2 2 1 1 1 3 4 4
10 8 10 9 8 7 7 7 7 7 6 5 6 7 8 9 6 4 1 1 1 2 2 2 2 2 2 2 2 2 3 3 4 6 6 2 1 4 4 4 4 3 4
9 8 10 8 7 6 6 5 4 4 5 5 5 6 6 7 7 7 8 2 2 1 1 1 1 1 2 2 3 4 4 4 4 8 4 4 4 4 4 8 7 6 6
9 8 9 5 8 8 7 8 9 8 4 4 3 5 4 5 6 7 9 4 2 2 3 4 4 5 5 5 5 5 5 5 6 7 6 3 7 2 5 6 8 5 7
9 9 10 12 13 12 11 10 11 11 10 10 10 10 10 9 8 8 8 8 6 5 6 7 7 8 8 8 8 7 7 5 9 8 7 7 7 6 9 8 10 10 9
9 9 10 12 13 13 12 11 11 12 12 12 11 11 11 11 10 10 10 9 9 9 8 8 9 10 10 10 10 10 8 7 8 9 8 8 5 8 10 12 12 12 12
9 8 8 7 9 12 13 12 12 12 12 12 12 11 10 10 10 10 9 10 9 9 9 8 8 10 12 12 12 11 10 9 10 8 8 7 6 9 12 12 14 13 14
8 7 6 7 6 6 6 11 11 11 11 10 10 10 8 3 6 7 7 10 10 10 9 9 8 8 8 9 12 12 9 9 12 11 8 7 3 12 14 15 15 16 15
6 5 5 6 6 5 5 6 5 7 6 4 3 5 5 5 6 7 5 9 9 9 9 9 9 9 10 12 4 7 7 7 8 6 5 7 8 14 16 17 17 17 16
6 6 4 5 5 5 4 5 5 4 4 5 6 6 5 6 5 6 5 7 7 8 7 7 7 9 9 7 6 6 6 7 6 7 6 9 10 17 19 18 18 18 18
6 4 4 4 4 5 4 3 2 2 3 3 6 6 6 5 5 5 4 5 6 5 5 7 6 5 7 7 7 8 8 9 7 7 8 8 11 14 16 16 19 20 19
5 4 4 4 4 5 3 3 3 3 4 4 4 6 5 4 5 5 5 6 5 5 7 6 5 7 8 9 9 10 10 9 7 7 9 8 8 13 15 16 16 16 19
5 4 3 3 3 3 4 3 3 4 4 5 4 6 6 6 6 6 6 6 6 6 6 7 7 7 8 9 9 10 10 11 11 8 8 5 6 13 15 16 16 17 17
4 4 3 2 3 3 3 4 3 3 4 4 5 5 7 6 6 7 7 6 6 6 6 7 7 8 8 8 9 10 11 11 11 12 9 10 7 10 14 16 17 17 18
5 4 4 3 2 1 2 2 2 3 4 4 5 7 7 7 7 8 6 6 6 6 7 6 7 6 6 6 8 8 8 9 9 11 10 9 10 8 10 13 15 16 18
5 6 4 2 2 1 1 1 2 3 3 4 5 6 7 8 8 7 6 6 6 6 5 5 5 6 6 7 7 7 7 7 8 8 7 7 7 8 6 11 11 14 16
7 6 5 4 3 1 1 2 2 3 3 4 4 5 7 7 7 7 6 6 6 5 5 5 5 5 6 7 8 8 6 6 5 3 6 6 7 7 6 6 8 12 14
6 5 5 4 3 2 2 2 2 2 2 3 4 5 7 6 7 6 5 5 5 4 4 4 6 6 7 7 9 7 4 3 0 4 5 5 5 7 7 8 7 6 7
6 6 6 5 4 3 2 3 2 3 4 3 4 5 5 5 6 6 5 5 4 4 5 6 6 7 6 8 7 5 2 2 2 3 4 5 6 6 7 7 5 6 7
6 7 6 5 4 3 2 2 2 3 3 4 4 5 4 5 5 5 6 5 5 5 5 5 5 6 5 6 6 5 3 3 3 1 4 5 8 6 6 6 7 8 7
6 6 6 5 4 4 5 3 3 3 4 4 3 4 3 5 5 5 5 5 5 5 4 5 5 6 6 5 6 4 4 4 8 1 5 6 9 7 6 5 7 8 9
4 4 5 5 5 5 5 5 5 5 5 4 5 4 5 5 5 4 5 6 6 5 5 5 4 5 5 5 3 2 3 5 3 6 6 6 8 6 6 5 6 7 9
3 4 4 5 6 6 6 7 5 6 5 4 4 6 5 5 5 5 5 6 6 5 6 6 6 5 4 4 4 4 3 3 4 2 7 9 10 6 6 5 6 6 7
3 4 5 5 6 6 7 8 9 9 8 6 6 5 4 4 4 4 6 6 7 6 6 6 5 6 6 5 4 4 3 3 3 3 5 8 10 7 6 4 6 6 6
Wind_Direction
150 126 126 109 108 110 109 107 102 93 71 85 85 86 84 66 99 86 85 72 60 55 53 57 54 48 53 58 56 64 62 58 45 41 39 40 50 67 68 49 327 70 61
140 140 132 119 113 112 110 105 95 79 63 55 50 60 106 55 40 102 95 83 70 59 53 56 51 50 49 54 58 64 72 57 41 33 10 168 78 61 77 63 24 67 60
137 137 144 127 116 112 110 104 95 82 62 43 35 31 63 67 54 111 96 91 87 73 66 55 50 54 49 39 31 16 18 15 17 6 304 287 46 115 104 89 107 87 64
135 141 128 136 128 116 105 99 97 94 79 56 41 35 35 41 58 37 341 158 109 95 87 85 71 67 59 23 352 327 310 328 345 326 265 260 219 143 225 182 163 147 108
140 135 116 145 142 118 93 88 87 80 75 60 43 36 34 39 39 30 16 224 184 193 215 231 229 253 271 284 295 289 281 283 300 281 314 275 292 119 293 231 198 183 185
139 130 118 115 100 90 74 64 61 60 65 42 32 26 23 23 28 25 22 16 236 258 256 261 262 260 262 267 274 282 278 273 274 266 279 250 268 4 282 242 234 212 196
126 103 93 79 80 77 73 65 61 58 52 45 36 27 21 17 16 14 15 10 350 296 277 270 269 266 261 258 263 268 272 273 274 277 270 266 270 309 273 256 220 225 223
109 102 96 80 77 75 69 64 59 55 52 45 39 30 26 26 23 21 15 5 349 327 303 279 274 271 271 267 262 258 255 255 266 270 270 268 267 276 281 262 252 237 226
92 86 98 92 98 81 65 60 58 55 52 47 41 32 27 28 20 17 10 7 360 1 354 351 333 284 273 272 269 258 242 238 268 271 274 266 212 255 273 273 262 257 236
79 79 74 100 87 74 70 52 54 49 46 45 38 28 11 351 8 21 344 16 350 350 349 352 346 336 333 306 286 255 253 249 255 272 258 260 274 267 267 268 266 263 251
83 79 97 88 81 85 70 59 59 45 44 15 21 26 308 351 342 329 19 345 344 346 342 344 340 335 323 276 305 319 284 253 258 260 279 279 243 265 267 265 265 263 266
131 111 94 82 69 66 57 43 32 25 21 13 360 352 344 336 344 312 299 320 316 339 306 333 328 310 275 302 290 239 264 259 257 257 259 284 275 273 268 262 263 265 264
134 111 87 78 64 54 49 20 18 15 5 5 3 351 339 329 337 329 319 327 329 347 322 321 311 310 314 304 297 293 291 287 270 262 251 263 271 282 288 286 274 268 262
152 132 98 72 60 53 31 25 17 7 351 353 357 353 343 339 332 332 324 324 317 325 317 315 312 312 304 299 296 293 289 288 282 282 280 208 260 285 287 291 287 275 269
167 147 120 79 64 52 28 13 14 9 354 350 346 345 342 327 323 324 317 313 313 316 310 311 308 308 300 295 291 288 286 283 282 277 277 273 271 281 285 288 292 293 289
175 173 158 109 71 51 28 16 5 353 348 342 335 341 332 326 318 315 311 312 307 312 314 311 309 301 298 296 295 290 286 282 280 282 280 282 251 270 284 286 288 290 290
191 181 190 146 123 53 41 4 345 351 328 333 333 331 327 322 317 315 313 308 314 316 307 307 305 298 296 302 294 295 290 290 288 282 284 287 290 255 253 283 284 286 287
202 205 171 166 183 231 30 332 333 336 324 331 328 323 330 323 317 310 307 306 317 304 308 309 315 312 307 305 305 302 294 291 296 296 291 289 290 288 271 247 282 286 284
210 201 194 196 214 216 283 310 312 306 309 326 320 328 333 325 328 318 317 316 312 306 306 316 319 315 312 315 310 306 303 303 305 300 310 292 297 287 294 293 263 282 284
217 207 196 197 213 217 253 256 260 282 296 318 329 334 328 327 328 320 318 322 319 307 304 321 322 324 316 322 315 308 319 333 217 327 325 316 313 304 300 302 305 302 276
214 208 206 210 202 236 260 295 283 316 319 304 322 319 315 324 323 317 319 319 321 313 328 322 324 324 334 343 313 338 308 25 218 332 352 338 326 318 312 299 308 303 304
219 209 205 217 223 239 253 270 293 320 310 308 304 308 308 312 316 313 316 315 318 316 319 327 333 332 336 358 340 304 347 166 2 286 340 346 343 324 304 302 309 312 312
211 205 211 219 240 239 234 231 249 264 257 278 293 303 302 295 308 314 310 304 308 305 313 320 333 337 333 336 356 335 326 357 336 296 331 330 337 331 337 324 317 322 325
200 209 228 238 245 244 226 243 255 279 290 304 293 296 292 279 288 304 305 303 309 310 308 322 321 328 316 322 323 349 327 317 335 319 333 324 343 333 339 333 337 336 329
192 217 237 244 248 246 233 239 252 259 269 280 279 279 275 277 265 302 303 306 304 309 312 307 309 318 304 296 309 338 336 315 287 294 307 330 332 336 346 348 343 341 343
205 234 245 251 260 244 238 241 245 256 264 269 271 268 263 265 271 271 290 296 294 295 296 305 310 302 313 302 294 286 275 304 311 287 304 318 314 330 336 349 355 358 360